Time,TemperatureF,DewpointF,PressureIn,WindDirection,WindDirectionDegrees,WindSpeedMPH,WindSpeedGustMPH,Humidity,HourlyPrecipIn,Conditions,Clouds,dailyrainin,SolarRadiationWatts/m^2,SoftwareType,DateUTC
2013-01-26 00:02:00,42.0,41.0,-100.00,South,191,4.0,6.0,98,0.00,,,0.29,0.000000,,2013-01-26 08:02:00,
2013-01-26 00:11:00,42.0,41.0,-100.00,South,191,4.0,6.0,98,0.00,,,0.29,0.000000,,2013-01-26 08:11:00,
2013-01-26 00:42:00,44.0,43.0,-100.00,SSW,195,5.0,8.0,95,0.00,,,0.29,0.000000,,2013-01-26 08:42:00,
2013-01-26 00:54:00,44.0,43.0,-100.00,SSW,195,5.0,8.0,95,0.00,,,0.29,0.000000,,2013-01-26 08:54:00,
2013-01-26 01:02:00,44.0,43.0,-100.00,SSW,195,5.0,8.0,95,0.00,,,0.29,0.000000,,2013-01-26 09:02:00,
2013-01-26 01:11:00,44.0,43.0,-100.00,SSW,195,5.0,8.0,95,0.00,,,0.29,0.000000,,2013-01-26 09:11:00,
2013-01-26 01:32:00,44.0,43.0,-100.00,SSW,201,4.0,9.0,96,0.02,,,0.31,0.000000,,2013-01-26 09:32:00,
2013-01-26 01:42:00,44.0,43.0,-100.00,SSW,201,4.0,9.0,96,0.02,,,0.31,0.000000,,2013-01-26 09:42:00,
2013-01-26 01:52:00,44.0,43.0,-100.00,SSW,201,4.0,9.0,96,0.02,,,0.31,0.000000,,2013-01-26 09:52:00,
2013-01-26 02:01:00,44.0,43.0,-100.00,SSW,201,4.0,9.0,96,0.02,,,0.31,0.000000,,2013-01-26 10:01:00,
2013-01-26 02:11:00,44.0,43.0,-100.00,SSW,201,4.0,9.0,96,0.02,,,0.31,0.000000,,2013-01-26 10:11:00,
2013-01-26 02:32:00,43.0,42.0,-100.00,SSW,192,4.0,8.0,97,0.01,,,0.32,0.000000,,2013-01-26 10:32:00,
2013-01-26 02:42:00,43.0,42.0,-100.00,SSW,192,4.0,8.0,97,0.01,,,0.32,0.000000,,2013-01-26 10:42:00,
2013-01-26 02:52:00,43.0,42.0,-100.00,SSW,192,4.0,8.0,97,0.01,,,0.32,0.000000,,2013-01-26 10:52:00,
2013-01-26 03:01:00,43.0,42.0,-100.00,SSW,192,4.0,8.0,97,0.01,,,0.32,0.000000,,2013-01-26 11:01:00,
2013-01-26 03:12:00,43.0,42.0,-100.00,SSW,192,4.0,8.0,97,0.01,,,0.32,0.000000,,2013-01-26 11:12:00,
2013-01-26 03:32:00,43.0,42.0,-100.00,SSW,204,3.0,7.0,96,0.04,,,0.36,0.000000,,2013-01-26 11:32:00,
2013-01-26 03:42:00,43.0,42.0,-100.00,SSW,204,3.0,7.0,96,0.04,,,0.36,0.000000,,2013-01-26 11:42:00,
2013-01-26 03:52:00,43.0,42.0,-100.00,SSW,204,3.0,7.0,96,0.04,,,0.36,0.000000,,2013-01-26 11:52:00,
2013-01-26 04:01:00,43.0,42.0,-100.00,SSW,204,3.0,7.0,96,0.04,,,0.36,0.000000,,2013-01-26 12:01:00,
2013-01-26 04:12:00,43.0,42.0,-100.00,SSW,204,3.0,7.0,96,0.04,,,0.36,0.000000,,2013-01-26 12:12:00,
2013-01-26 04:33:00,43.0,42.0,-100.00,West,262,2.0,5.0,95,0.00,,,0.33,0.000000,,2013-01-26 12:33:00,
2013-01-26 04:42:00,43.0,42.0,-100.00,West,262,2.0,5.0,95,0.00,,,0.33,0.000000,,2013-01-26 12:42:00,
2013-01-26 04:53:00,43.0,42.0,-100.00,West,262,2.0,5.0,95,0.00,,,0.33,0.000000,,2013-01-26 12:53:00,
2013-01-26 05:02:00,43.0,42.0,-100.00,West,262,2.0,5.0,95,0.00,,,0.33,0.000000,,2013-01-26 13:02:00,
2013-01-26 05:12:00,43.0,42.0,-100.00,West,262,2.0,5.0,95,0.00,,,0.33,0.000000,,2013-01-26 13:12:00,
2013-01-26 05:42:00,42.0,40.0,-100.00,SW,231,2.0,4.0,93,0.00,,,-99.99,0.000000,,2013-01-26 13:42:00,
2013-01-26 05:53:00,42.0,40.0,-100.00,SW,231,2.0,4.0,93,0.00,,,-99.99,0.000000,,2013-01-26 13:53:00,
2013-01-26 06:02:00,42.0,40.0,-100.00,SW,231,2.0,4.0,93,0.00,,,-99.99,0.000000,,2013-01-26 14:02:00,
2013-01-26 06:11:00,42.0,40.0,-100.00,SW,231,2.0,4.0,93,0.00,,,-99.99,0.000000,,2013-01-26 14:11:00,
2013-01-26 06:32:00,42.0,40.0,-100.00,SSW,202,3.0,5.0,94,0.02,,,0.29,0.000000,,2013-01-26 14:32:00,
2013-01-26 06:43:00,42.0,40.0,-100.00,SSW,202,3.0,5.0,94,0.02,,,0.29,0.000000,,2013-01-26 14:43:00,
2013-01-26 06:53:00,42.0,40.0,-100.00,SSW,202,3.0,5.0,94,0.02,,,0.29,0.000000,,2013-01-26 14:53:00,
2013-01-26 07:02:00,42.0,40.0,-100.00,SSW,202,3.0,5.0,94,0.02,,,0.29,0.000000,,2013-01-26 15:02:00,
2013-01-26 07:12:00,42.0,40.0,-100.00,SSW,202,3.0,5.0,94,0.02,,,0.29,0.000000,,2013-01-26 15:12:00,
2013-01-26 07:33:00,41.0,39.0,-100.00,South,190,3.0,5.0,93,0.01,,,0.28,0.000000,,2013-01-26 15:33:00,
2013-01-26 07:43:00,41.0,39.0,-100.00,South,190,3.0,5.0,93,0.01,,,0.28,0.000000,,2013-01-26 15:43:00,
2013-01-26 07:52:00,41.0,39.0,-100.00,South,190,3.0,5.0,93,0.01,,,0.28,0.000000,,2013-01-26 15:52:00,
2013-01-26 08:01:00,41.0,39.0,-100.00,South,190,3.0,5.0,93,0.01,,,0.28,0.000000,,2013-01-26 16:01:00,
2013-01-26 08:11:00,41.0,39.0,-100.00,South,190,3.0,5.0,93,0.01,,,0.28,0.000000,,2013-01-26 16:11:00,
2013-01-26 08:33:00,41.0,40.0,-100.00,South,178,3.0,6.0,95,0.03,,,0.30,4.000000,,2013-01-26 16:33:00,
2013-01-26 08:43:00,41.0,40.0,-100.00,South,178,3.0,6.0,95,0.03,,,0.30,4.000000,,2013-01-26 16:43:00,
2013-01-26 08:53:00,41.0,40.0,-100.00,South,178,3.0,6.0,95,0.03,,,0.30,4.000000,,2013-01-26 16:53:00,
2013-01-26 09:03:00,41.0,40.0,-100.00,South,178,3.0,6.0,95,0.03,,,0.30,4.000000,,2013-01-26 17:03:00,
2013-01-26 09:12:00,41.0,40.0,-100.00,South,178,3.0,6.0,95,0.03,,,0.30,4.000000,,2013-01-26 17:12:00,
2013-01-26 09:33:00,42.0,41.0,-100.00,SSE,165,2.0,3.0,96,0.00,,,0.26,61.000000,,2013-01-26 17:33:00,
2013-01-26 09:42:00,42.0,41.0,-100.00,SSE,165,2.0,3.0,96,0.00,,,0.26,61.000000,,2013-01-26 17:42:00,
2013-01-26 09:53:00,42.0,41.0,-100.00,SSE,165,2.0,3.0,96,0.00,,,0.26,61.000000,,2013-01-26 17:53:00,
2013-01-26 10:02:00,42.0,41.0,-100.00,SSE,165,2.0,3.0,96,0.00,,,0.26,61.000000,,2013-01-26 18:02:00,
2013-01-26 10:11:00,42.0,41.0,-100.00,SSE,165,2.0,3.0,96,0.00,,,0.26,61.000000,,2013-01-26 18:11:00,
2013-01-26 10:42:00,43.0,40.0,-100.00,SSW,197,3.0,6.0,89,0.04,,,0.27,181.000000,,2013-01-26 18:42:00,
2013-01-26 10:52:00,43.0,40.0,-100.00,SSW,197,3.0,6.0,89,0.04,,,0.27,181.000000,,2013-01-26 18:52:00,
2013-01-26 11:03:00,43.0,40.0,-100.00,SSW,197,3.0,6.0,89,0.04,,,0.27,181.000000,,2013-01-26 19:03:00,
2013-01-26 11:11:00,43.0,40.0,-100.00,SSW,197,3.0,6.0,89,0.04,,,0.27,181.000000,,2013-01-26 19:11:00,
2013-01-26 11:33:00,48.0,44.0,-100.00,SW,219,3.0,5.0,86,0.00,,,0.21,369.000000,,2013-01-26 19:33:00,
2013-01-26 11:42:00,48.0,44.0,-100.00,SW,219,3.0,5.0,86,0.00,,,0.21,369.000000,,2013-01-26 19:42:00,
2013-01-26 11:52:00,48.0,44.0,-100.00,SW,219,3.0,5.0,86,0.00,,,0.21,369.000000,,2013-01-26 19:52:00,
2013-01-26 12:02:00,48.0,44.0,-100.00,SW,219,3.0,5.0,86,0.00,,,0.21,369.000000,,2013-01-26 20:02:00,
2013-01-26 12:11:00,48.0,44.0,-100.00,SW,219,3.0,5.0,86,0.00,,,0.21,369.000000,,2013-01-26 20:11:00,
2013-01-26 12:32:00,45.0,42.0,-100.00,West,273,3.0,7.0,88,0.07,,,0.28,333.000000,,2013-01-26 20:32:00,
2013-01-26 12:42:00,45.0,42.0,-100.00,West,273,3.0,7.0,88,0.07,,,0.28,333.000000,,2013-01-26 20:42:00,
2013-01-26 12:52:00,45.0,42.0,-100.00,West,273,3.0,7.0,88,0.07,,,0.28,333.000000,,2013-01-26 20:52:00,
2013-01-26 13:02:00,45.0,42.0,-100.00,West,273,3.0,7.0,88,0.07,,,0.28,333.000000,,2013-01-26 21:02:00,
2013-01-26 13:12:00,45.0,42.0,-100.00,West,273,3.0,7.0,88,0.07,,,0.28,333.000000,,2013-01-26 21:12:00,
2013-01-26 13:32:00,48.0,43.0,-100.00,West,267,3.0,5.0,82,0.01,,,0.29,357.000000,,2013-01-26 21:32:00,
2013-01-26 13:43:00,48.0,43.0,-100.00,West,267,3.0,5.0,82,0.01,,,0.29,357.000000,,2013-01-26 21:43:00,
2013-01-26 13:52:00,48.0,43.0,-100.00,West,267,3.0,5.0,82,0.01,,,0.29,357.000000,,2013-01-26 21:52:00,
2013-01-26 14:01:00,48.0,43.0,-100.00,West,267,3.0,5.0,82,0.01,,,0.29,357.000000,,2013-01-26 22:01:00,
2013-01-26 14:11:00,48.0,43.0,-100.00,West,267,3.0,5.0,82,0.01,,,0.29,357.000000,,2013-01-26 22:11:00,
2013-01-26 14:42:00,44.0,41.0,-100.00,West,260,2.0,6.0,88,0.00,,,0.29,188.000000,,2013-01-26 22:42:00,
2013-01-26 14:52:00,44.0,41.0,-100.00,West,260,2.0,6.0,88,0.00,,,0.29,188.000000,,2013-01-26 22:52:00,
2013-01-26 15:01:00,44.0,41.0,-100.00,West,260,2.0,6.0,88,0.00,,,0.29,188.000000,,2013-01-26 23:01:00,
2013-01-26 15:11:00,44.0,41.0,-100.00,West,260,2.0,6.0,88,0.00,,,0.29,188.000000,,2013-01-26 23:11:00,
2013-01-26 15:33:00,46.0,41.0,-100.00,West,274,3.0,6.0,83,0.00,,,0.28,237.000000,,2013-01-26 23:33:00,
2013-01-26 15:42:00,46.0,41.0,-100.00,West,274,3.0,6.0,83,0.00,,,0.28,237.000000,,2013-01-26 23:42:00,
2013-01-26 15:52:00,46.0,41.0,-100.00,West,274,3.0,6.0,83,0.00,,,0.28,237.000000,,2013-01-26 23:52:00,
2013-01-26 16:02:00,46.0,41.0,-100.00,West,274,3.0,6.0,83,0.00,,,0.28,237.000000,,2013-01-27 00:02:00,
2013-01-26 16:11:00,46.0,41.0,-100.00,West,274,3.0,6.0,83,0.00,,,0.28,237.000000,,2013-01-27 00:11:00,
2013-01-26 16:32:00,45.0,40.0,-100.00,West,277,2.0,6.0,83,0.00,,,0.27,131.000000,,2013-01-27 00:32:00,
2013-01-26 16:42:00,45.0,40.0,-100.00,West,277,2.0,6.0,83,0.00,,,0.27,131.000000,,2013-01-27 00:42:00,
2013-01-26 16:52:00,45.0,40.0,-100.00,West,277,2.0,6.0,83,0.00,,,0.27,131.000000,,2013-01-27 00:52:00,
2013-01-26 17:01:00,45.0,40.0,-100.00,West,277,2.0,6.0,83,0.00,,,0.27,131.000000,,2013-01-27 01:01:00,
2013-01-26 17:11:00,45.0,40.0,-100.00,West,277,2.0,6.0,83,0.00,,,0.27,131.000000,,2013-01-27 01:11:00,
2013-01-26 17:32:00,42.0,39.0,-100.00,West,276,2.0,5.0,89,0.01,,,0.28,21.000000,,2013-01-27 01:32:00,
2013-01-26 17:42:00,42.0,39.0,-100.00,West,276,2.0,5.0,89,0.01,,,0.28,21.000000,,2013-01-27 01:42:00,
2013-01-26 17:52:00,42.0,39.0,-100.00,West,276,2.0,5.0,89,0.01,,,0.28,21.000000,,2013-01-27 01:52:00,
2013-01-26 18:01:00,42.0,39.0,-100.00,West,276,2.0,5.0,89,0.01,,,0.28,21.000000,,2013-01-27 02:01:00,
2013-01-26 18:11:00,42.0,39.0,-100.00,West,276,2.0,5.0,89,0.01,,,0.28,21.000000,,2013-01-27 02:11:00,
2013-01-26 18:42:00,41.0,38.0,-100.00,SSW,203,3.0,5.0,90,0.04,,,0.32,1.000000,,2013-01-27 02:42:00,
2013-01-26 18:52:00,41.0,38.0,-100.00,SSW,203,3.0,5.0,90,0.04,,,0.32,1.000000,,2013-01-27 02:52:00,
2013-01-26 19:01:00,41.0,38.0,-100.00,SSW,203,3.0,5.0,90,0.04,,,0.32,1.000000,,2013-01-27 03:01:00,
2013-01-26 19:11:00,41.0,38.0,-100.00,SSW,203,3.0,5.0,90,0.04,,,0.32,1.000000,,2013-01-27 03:11:00,
2013-01-26 19:32:00,41.0,39.0,-100.00,NW,310,2.0,5.0,94,0.03,,,0.34,0.000000,,2013-01-27 03:32:00,
2013-01-26 19:42:00,41.0,39.0,-100.00,NW,310,2.0,5.0,94,0.03,,,0.34,0.000000,,2013-01-27 03:42:00,
2013-01-26 19:52:00,41.0,39.0,-100.00,NW,310,2.0,5.0,94,0.03,,,0.34,0.000000,,2013-01-27 03:52:00,
2013-01-26 20:01:00,41.0,39.0,-100.00,NW,310,2.0,5.0,94,0.03,,,0.34,0.000000,,2013-01-27 04:01:00,
2013-01-26 20:11:00,41.0,39.0,-100.00,NW,310,2.0,5.0,94,0.03,,,0.34,0.000000,,2013-01-27 04:11:00,
2013-01-26 20:32:00,40.0,39.0,-100.00,SSE,166,2.0,4.0,95,0.03,,,0.37,0.000000,,2013-01-27 04:32:00,
2013-01-26 20:42:00,40.0,39.0,-100.00,SSE,166,2.0,4.0,95,0.03,,,0.37,0.000000,,2013-01-27 04:42:00,
2013-01-26 20:52:00,40.0,39.0,-100.00,SSE,166,2.0,4.0,95,0.03,,,0.37,0.000000,,2013-01-27 04:52:00,
2013-01-26 21:03:00,40.0,39.0,-100.00,SSE,166,2.0,4.0,95,0.03,,,0.37,0.000000,,2013-01-27 05:03:00,
2013-01-26 21:11:00,40.0,39.0,-100.00,SSE,166,2.0,4.0,95,0.03,,,0.37,0.000000,,2013-01-27 05:11:00,
2013-01-26 21:32:00,39.0,38.0,-100.00,East,89,2.0,3.0,96,0.01,,,0.37,0.000000,,2013-01-27 05:32:00,
2013-01-26 21:42:00,39.0,38.0,-100.00,East,89,2.0,3.0,96,0.01,,,0.37,0.000000,,2013-01-27 05:42:00,
2013-01-26 21:52:00,39.0,38.0,-100.00,East,89,2.0,3.0,96,0.01,,,0.37,0.000000,,2013-01-27 05:52:00,
2013-01-26 22:01:00,39.0,38.0,-100.00,East,89,2.0,3.0,96,0.01,,,0.37,0.000000,,2013-01-27 06:01:00,
2013-01-26 22:11:00,39.0,38.0,-100.00,East,89,2.0,3.0,96,0.01,,,0.37,0.000000,,2013-01-27 06:11:00,
2013-01-26 22:13:00,39.0,38.0,-100.00,South,182,2.0,3.0,96,0.03,,,0.40,0.000000,,2013-01-27 06:13:00,
2013-01-26 22:32:00,39.0,38.0,-100.00,South,182,2.0,3.0,96,0.03,,,0.40,0.000000,,2013-01-27 06:32:00,
2013-01-26 22:42:00,39.0,38.0,-100.00,South,182,2.0,3.0,96,0.03,,,0.40,0.000000,,2013-01-27 06:42:00,
2013-01-26 22:52:00,39.0,38.0,-100.00,South,182,2.0,3.0,96,0.03,,,0.40,0.000000,,2013-01-27 06:52:00,
2013-01-26 23:01:00,39.0,38.0,-100.00,South,182,2.0,3.0,96,0.03,,,0.40,0.000000,,2013-01-27 07:01:00,
2013-01-26 23:32:00,39.0,38.0,-100.00,SE,138,2.0,4.0,97,0.01,,,0.41,0.000000,,2013-01-27 07:32:00,
2013-01-26 23:42:00,39.0,38.0,-100.00,SE,138,2.0,4.0,97,0.01,,,0.41,0.000000,,2013-01-27 07:42:00,
2013-01-26 23:52:00,39.0,38.0,-100.00,SE,138,2.0,4.0,97,0.01,,,0.41,0.000000,,2013-01-27 07:52:00,